Regional Weather Roundup
Issued by NWS Albany, NY

Home | Current Version | Previous Version | Text Only | Print | Product List | Glossary On
Versions: 1 2 3 4 5 6 7 8 9 10 11 12 13 14 15 16 17 18 19 20 21 22 23 24 25 26 27
000
ASUS41 KALY 291110
RWRALY

NEW YORK STATE HOURLY WEATHER ROUNDUP
NATIONAL WEATHER SERVICE ALBANY NY
700 AM EDT THU SEP 29 2016

NOTE: "FAIR" INDICATES FEW OR NO CLOUDS BELOW 12,000 FEET WITH NO
SIGNIFICANT WEATHER AND/OR NO OBSTRUCTIONS TO VISIBILITY.

NYZ032-033-038>043-046>054-057>066-NYZ062>081-082-084-291200-
EAST


CITY           SKY/WX    TMP DP  RH WIND       PRES   REMARKS
ALBANY         MOCLDY    50  47  89 CALM      30.40R
GLENS FALLS    MOCLDY    48  44  86 CALM      30.41R
POUGHKEEPSIE   CLOUDY    57  48  72 N5        30.35R
NEWBURGH       CLOUDY    57  50  77 E8        30.36R
MONTGOMERY     CLOUDY    58  49  72 NE9       30.35R
WHITE PLAINS   CLOUDY    57  49  74 NE12      30.32R
ISLIP          CLOUDY    60  56  86 NE14G21   30.31R
NEW YORK CITY  CLOUDY    63  55  75 NE22G31   30.30S
CENTRAL PARK   CLOUDY    60  53  77 NE12G17   30.33R
$$

NYZ005>009-017-018-044>046-055-056-291200-
CENTRAL


CITY           SKY/WX    TMP DP  RH WIND       PRES   REMARKS
FULTON         CLOUDY    56  46  69 VRB6      30.31R
SYRACUSE       MOCLDY    54  46  76 E8        30.30R
ROME           CLOUDY    54  47  77 E10       30.36R
ELMIRA         CLOUDY    57  52  83 E9        30.25S
BINGHAMTON     LGT RAIN  51  49  92 E8        30.28R
MONTICELLO     CLOUDY    52  46  82 E14G23    30.34R
$$

NYZ026>034-041>043-087-291200-
NORTH


CITY           SKY/WX    TMP DP  RH WIND       PRES   REMARKS
WATERTOWN      MOCLDY    46  44  93 NE6       30.36R
FORT DRUM      NOT AVBL
OGDENSBURG     CLOUDY    51  49  94 NE10G21   30.42R
MASSENA        CLEAR     48  45  89 E12       30.45R
SARANAC LAKE   CLOUDY    35  33  92 CALM      30.40R
PLATTSBURGH    CLEAR     49  47  93 NW5       30.45R
$$

NYZ001>004-010>016-019>021-085-291200-
WEST


CITY           SKY/WX    TMP DP  RH WIND       PRES   REMARKS
NIAGARA FALLS  CLOUDY    58  53  84 NE13      30.21R
BUFFALO        LGT RAIN  58  54  86 E13       30.19R
DUNKIRK        CLOUDY    61  54  77 E10       30.16R
JAMESTOWN      CLOUDY    57  52  82 E9        30.15S
WELLSVILLE     CLOUDY    53  51  93 SE12      30.23R
ROCHESTER      RAIN      56  54  93 E12       30.27R
PENN YAN       LGT RAIN  55  53  93 CALM      30.28R FOG
$$

             KEY
       WCI = WIND CHILL INDEX
       VSB = VISIBILITY
       HX  = HEAT INDEX
$$




USA.gov is the U.S. government's official web portal to all federal, state and local government web resources and services.